timestamp,wind_dir_avg,wind_spd_avg,wind_spd_max_dir,wind_spd_gust,battery_voltage,lat,long
2021-09-28 00:04:01+00:00,248.0,7.85,246.0,8.47,12.65,47.59359,-54.27349
2021-09-28 00:14:01+00:00,258.0,7.95,257.0,8.91,12.65,47.59359,-54.27349
2021-09-28 00:24:01+00:00,263.0,7.92,261.0,8.83,12.65,47.59359,-54.27349
2021-09-28 00:34:01+00:00,261.0,8.45,264.0,9.14,12.65,47.59359,-54.27349
2021-09-28 00:44:01+00:00,250.0,8.28,253.0,9.01,12.65,47.59359,-54.27349
2021-09-28 00:54:01+00:00,252.0,7.86,248.0,9.21,12.65,47.59359,-54.27349
2021-09-28 01:04:01+00:00,266.0,6.92,270.0,7.7,12.65,47.59359,-54.27349
2021-09-28 01:14:01+00:00,267.0,8.34,265.0,9.51,12.65,47.59359,-54.27349
2021-09-28 01:24:01+00:00,268.0,8.48,265.0,10.32,12.65,47.59359,-54.27349
2021-09-28 01:34:01+00:00,268.0,6.82,273.0,7.81,12.65,47.59359,-54.27349
2021-09-28 01:44:01+00:00,268.0,8.19,268.0,9.02,12.65,47.59359,-54.27349
2021-09-28 01:54:01+00:00,268.0,7.68,272.0,8.4,12.65,47.59359,-54.27349
2021-09-28 02:04:01+00:00,255.0,8.02,257.0,8.7,12.65,47.59359,-54.27349
2021-09-28 02:14:00+00:00,254.0,6.82,253.0,7.87,12.65,47.59359,-54.27349
2021-09-28 02:24:00+00:00,253.0,6.94,250.0,7.85,12.65,47.59359,-54.27349
2021-09-28 02:34:00+00:00,267.0,6.11,270.0,6.99,12.65,47.59359,-54.27349
2021-09-28 02:44:00+00:00,267.0,6.65,268.0,7.77,12.65,47.59359,-54.27349
2021-09-28 02:54:00+00:00,264.0,6.03,269.0,6.79,12.65,47.59359,-54.27349
2021-09-28 03:04:00+00:00,258.0,6.54,263.0,7.85,12.65,47.59359,-54.27349
2021-09-28 03:14:00+00:00,256.0,5.49,265.0,6.65,12.57,47.59359,-54.27349
2021-09-28 03:24:00+00:00,252.0,5.79,255.0,6.44,12.57,47.59359,-54.27349
2021-09-28 03:34:00+00:00,265.0,6.81,265.0,7.51,12.57,47.59359,-54.27349
2021-09-28 03:44:00+00:00,269.0,6.6,266.0,7.82,12.57,47.59359,-54.27349
2021-09-28 03:54:00+00:00,265.0,5.95,271.0,6.92,12.57,47.59359,-54.27349
2021-09-28 04:04:00+00:00,271.0,6.74,273.0,7.66,12.57,47.59359,-54.27349
2021-09-28 04:14:01+00:00,263.0,6.29,263.0,7.43,12.57,47.59359,-54.27349
2021-09-28 04:24:01+00:00,269.0,6.09,268.0,6.78,12.57,47.59359,-54.27349
2021-09-28 04:34:01+00:00,261.0,3.71,265.0,4.77,12.57,47.59359,-54.27349
2021-09-28 04:44:01+00:00,256.0,5.04,250.0,5.64,12.57,47.59359,-54.27349
2021-09-28 04:54:01+00:00,253.0,4.73,252.0,5.26,12.57,47.59359,-54.27349
2021-09-28 05:04:01+00:00,233.0,5.16,235.0,5.87,12.57,47.59359,-54.27349
2021-09-28 05:14:01+00:00,235.0,5.94,234.0,6.48,12.57,47.59359,-54.27349
2021-09-28 05:24:01+00:00,239.0,6.56,241.0,7.21,12.57,47.59359,-54.27349
2021-09-28 05:34:01+00:00,241.0,6.64,238.0,7.29,12.57,47.59359,-54.27349
2021-09-28 05:44:01+00:00,234.0,6.3,235.0,7.02,12.57,47.59359,-54.27349
2021-09-28 05:54:01+00:00,234.0,6.7,237.0,7.78,12.57,47.59359,-54.27349
2021-09-28 06:04:01+00:00,237.0,7.8,238.0,8.35,12.57,47.59359,-54.27349
2021-09-28 06:14:01+00:00,237.0,7.29,238.0,8.05,12.57,47.59359,-54.27349
2021-09-28 06:24:01+00:00,237.0,6.68,234.0,7.66,12.57,47.59359,-54.27349
2021-09-28 06:34:01+00:00,238.0,6.66,240.0,7.41,12.57,47.59359,-54.27349
2021-09-28 06:44:01+00:00,242.0,5.51,239.0,6.04,12.57,47.59359,-54.27349
2021-09-28 06:54:01+00:00,235.0,5.98,236.0,6.63,12.57,47.59359,-54.27349
2021-09-28 07:04:01+00:00,232.0,5.77,238.0,6.73,12.57,47.59359,-54.27349
2021-09-28 07:14:01+00:00,237.0,5.94,239.0,7.0,12.49,47.59359,-54.27349
2021-09-28 07:24:01+00:00,232.0,5.05,233.0,5.82,12.49,47.59359,-54.27349
2021-09-28 07:34:01+00:00,230.0,4.83,229.0,5.62,12.49,47.59359,-54.27349
2021-09-28 07:44:01+00:00,224.0,4.41,222.0,5.05,12.49,47.59359,-54.27349
2021-09-28 07:54:01+00:00,226.0,5.75,223.0,6.41,12.49,47.59359,-54.27349
2021-09-28 08:04:01+00:00,225.0,5.71,231.0,6.49,12.49,47.59359,-54.27349
2021-09-28 08:14:01+00:00,227.0,6.63,230.0,7.36,12.49,47.59359,-54.27349
2021-09-28 08:24:01+00:00,228.0,6.4,224.0,7.69,12.49,47.59359,-54.27349
2021-09-28 08:34:01+00:00,231.0,5.84,230.0,6.96,12.49,47.59359,-54.27349
2021-09-28 08:44:01+00:00,229.0,5.02,221.0,5.91,12.49,47.59359,-54.27349
2021-09-28 08:54:01+00:00,229.0,5.57,228.0,6.17,12.49,47.59359,-54.27349
2021-09-28 09:04:01+00:00,226.0,5.9,223.0,6.58,12.49,47.59359,-54.27349
2021-09-28 09:14:00+00:00,224.0,6.35,229.0,7.27,12.49,47.59359,-54.27349
2021-09-28 09:24:00+00:00,215.0,5.96,216.0,6.81,12.49,47.59359,-54.27349
2021-09-28 09:34:00+00:00,230.0,6.35,225.0,7.56,12.49,47.59359,-54.27349
2021-09-28 09:44:00+00:00,230.0,6.24,222.0,7.52,12.49,47.59359,-54.27349
2021-09-28 09:54:00+00:00,227.0,6.6,229.0,7.81,12.49,47.59359,-54.27349
2021-09-28 10:04:00+00:00,233.0,6.88,233.0,8.02,12.49,47.59359,-54.27349
2021-09-28 10:14:01+00:00,233.0,6.54,228.0,7.56,12.81,47.59359,-54.27349
2021-09-28 10:24:01+00:00,239.0,6.85,242.0,7.59,12.81,47.59359,-54.27349
2021-09-28 10:34:01+00:00,234.0,7.02,240.0,7.84,12.81,47.59359,-54.27349
2021-09-28 10:44:01+00:00,242.0,5.93,243.0,6.83,12.81,47.59359,-54.27349
2021-09-28 10:54:01+00:00,249.0,6.21,258.0,7.29,12.81,47.59359,-54.27349
2021-09-28 11:04:01+00:00,264.0,6.38,269.0,6.96,12.81,47.59359,-54.27349
2021-09-28 11:14:01+00:00,246.0,6.62,251.0,7.33,13.37,47.59359,-54.27349
2021-09-28 11:24:01+00:00,242.0,6.55,240.0,7.2,13.37,47.59359,-54.27349
2021-09-28 11:34:01+00:00,240.0,5.89,247.0,6.59,13.37,47.59359,-54.27349
2021-09-28 11:44:01+00:00,236.0,6.13,236.0,6.94,13.37,47.59359,-54.27349
2021-09-28 11:54:01+00:00,242.0,5.87,245.0,6.43,13.37,47.59359,-54.27349
2021-09-28 12:04:01+00:00,234.0,5.48,235.0,6.15,13.37,47.59359,-54.27349
2021-09-28 12:14:01+00:00,232.0,5.77,234.0,7.06,14.24,47.59359,-54.27349
2021-09-28 12:24:01+00:00,227.0,5.43,234.0,6.34,14.24,47.59359,-54.27349
2021-09-28 12:34:01+00:00,228.0,6.39,225.0,7.48,14.24,47.59359,-54.27349
2021-09-28 12:44:01+00:00,226.0,4.44,226.0,5.09,14.24,47.59359,-54.27349
2021-09-28 12:54:01+00:00,208.0,5.35,207.0,5.79,14.24,47.59359,-54.27349
2021-09-28 13:04:01+00:00,206.0,6.69,202.0,7.39,14.24,47.59359,-54.27349
2021-09-28 14:14:01+00:00,211.0,7.92,213.0,8.67,14.32,47.59359,-54.27349
2021-09-28 14:24:01+00:00,209.0,8.74,206.0,10.13,14.32,47.59359,-54.27349
2021-09-28 14:34:01+00:00,209.0,8.82,215.0,9.91,14.32,47.59359,-54.27349
2021-09-28 14:44:01+00:00,206.0,8.0,206.0,8.65,14.32,47.59359,-54.27349
2021-09-28 14:54:01+00:00,211.0,8.06,213.0,9.09,14.32,47.59359,-54.27349
2021-09-28 15:04:01+00:00,209.0,9.5,208.0,10.53,14.32,47.59359,-54.27349
2021-09-28 15:14:01+00:00,213.0,9.58,214.0,11.03,14.32,47.59359,-54.27349
2021-09-28 15:24:01+00:00,209.0,8.32,203.0,10.03,14.32,47.59359,-54.27349
2021-09-28 15:34:01+00:00,213.0,8.55,215.0,10.52,14.32,47.59359,-54.27349
2021-09-28 15:44:01+00:00,212.0,10.05,209.0,11.98,14.32,47.59359,-54.27349
2021-09-28 15:54:01+00:00,211.0,8.62,210.0,10.04,14.32,47.59359,-54.27349
2021-09-28 16:04:01+00:00,214.0,9.81,211.0,11.12,14.32,47.59359,-54.27349
2021-09-28 16:14:01+00:00,210.0,11.18,211.0,12.31,13.6,47.59359,-54.27349
2021-09-28 16:24:01+00:00,212.0,11.48,212.0,13.65,13.6,47.59359,-54.27349
2021-09-28 16:34:01+00:00,215.0,11.61,211.0,13.74,13.6,47.59359,-54.27349
2021-09-28 16:44:01+00:00,217.0,12.1,217.0,13.41,13.6,47.59359,-54.27349
2021-09-28 16:54:01+00:00,215.0,11.83,209.0,13.54,13.6,47.59359,-54.27349
2021-09-28 17:04:01+00:00,212.0,9.43,215.0,10.79,13.6,47.59359,-54.27349
2021-09-28 17:14:01+00:00,215.0,8.35,217.0,9.65,13.68,47.59359,-54.27349
2021-09-28 17:24:01+00:00,214.0,10.11,210.0,11.55,13.68,47.59359,-54.27349
2021-09-28 17:34:01+00:00,212.0,10.59,216.0,11.74,13.68,47.59359,-54.27349
2021-09-28 17:44:01+00:00,220.0,9.05,217.0,10.36,13.68,47.59359,-54.27349
2021-09-28 17:54:01+00:00,216.0,9.71,201.0,11.87,13.68,47.59359,-54.27349
2021-09-28 18:04:01+00:00,213.0,8.7,213.0,9.73,13.68,47.59359,-54.27349
2021-09-28 18:14:01+00:00,210.0,12.46,206.0,15.28,13.44,47.59359,-54.27349
2021-09-28 18:24:01+00:00,215.0,12.28,216.0,14.72,13.44,47.59359,-54.27349
2021-09-28 18:34:01+00:00,214.0,11.79,212.0,13.69,13.44,47.59359,-54.27349
2021-09-28 18:44:01+00:00,216.0,11.2,216.0,13.26,13.44,47.59359,-54.27349
2021-09-28 18:54:01+00:00,215.0,11.49,216.0,13.52,13.44,47.59359,-54.27349
2021-09-28 19:04:01+00:00,217.0,10.26,218.0,11.49,13.44,47.59359,-54.27349
2021-09-28 19:14:01+00:00,218.0,11.35,217.0,12.89,13.44,47.59359,-54.27349
2021-09-28 19:24:01+00:00,217.0,9.93,220.0,12.25,13.44,47.59359,-54.27349
2021-09-28 19:34:01+00:00,215.0,10.37,214.0,11.47,13.44,47.59359,-54.27349
2021-09-28 19:44:01+00:00,216.0,10.79,219.0,12.17,13.44,47.59359,-54.27349
2021-09-28 19:54:01+00:00,216.0,10.58,219.0,11.83,13.44,47.59359,-54.27349
2021-09-28 20:04:01+00:00,217.0,10.23,218.0,11.55,13.44,47.59359,-54.27349
2021-09-28 20:14:01+00:00,215.0,10.84,213.0,12.72,13.29,47.59359,-54.27349
2021-09-28 20:24:01+00:00,216.0,10.89,216.0,11.83,13.29,47.59359,-54.27349
2021-09-28 20:34:01+00:00,216.0,10.4,223.0,12.94,13.29,47.59359,-54.27349
2021-09-28 20:44:01+00:00,215.0,10.94,214.0,12.14,13.29,47.59359,-54.27349
2021-09-28 20:54:01+00:00,214.0,11.61,208.0,13.72,13.29,47.59359,-54.27349
2021-09-28 21:04:01+00:00,215.0,10.67,219.0,12.37,13.29,47.59359,-54.27349
2021-09-28 21:14:01+00:00,216.0,11.39,218.0,12.67,12.73,47.59359,-54.27349
2021-09-28 21:24:01+00:00,214.0,11.79,215.0,13.27,12.73,47.59359,-54.27349
2021-09-28 21:34:01+00:00,217.0,10.93,221.0,12.17,12.73,47.59359,-54.27349
2021-09-28 21:44:01+00:00,215.0,10.66,214.0,11.72,12.73,47.59359,-54.27349
2021-09-28 21:54:01+00:00,214.0,10.76,217.0,12.21,12.73,47.59359,-54.27349
2021-09-28 22:04:01+00:00,215.0,11.28,217.0,12.14,12.73,47.59359,-54.27349
2021-09-28 22:14:01+00:00,214.0,11.23,209.0,12.92,12.65,47.59359,-54.27349
2021-09-28 22:24:01+00:00,216.0,10.17,221.0,11.57,12.65,47.59359,-54.27349
2021-09-28 22:34:01+00:00,216.0,8.9,220.0,9.96,12.65,47.59359,-54.27349
2021-09-28 22:44:01+00:00,213.0,10.85,214.0,11.9,12.65,47.59359,-54.27349
2021-09-28 22:54:01+00:00,213.0,10.98,211.0,12.98,12.65,47.59359,-54.27349
2021-09-28 23:04:01+00:00,214.0,10.86,209.0,12.39,12.65,47.59359,-54.27349
2021-09-28 23:14:00+00:00,215.0,11.02,215.0,12.78,12.65,47.59359,-54.27349
2021-09-28 23:24:00+00:00,217.0,11.28,219.0,12.91,12.65,47.59359,-54.27349
2021-09-28 23:34:00+00:00,221.0,8.71,219.0,10.07,12.65,47.59359,-54.27349
2021-09-28 23:44:00+00:00,214.0,10.02,215.0,11.26,12.65,47.59359,-54.27349
2021-09-28 23:54:00+00:00,217.0,10.78,214.0,11.74,12.65,47.59359,-54.27349
